Location: Dine Sky Observatory
(36.3696°N, 109.6234°W)
Time: 23:02:30
(UTC-06:00)

Hubble Space Telescope - Visible Passes

Search period start: 15 July 2018 00:00
Search period end: 25 July 2018 00:00
Orbit: 537 x 541 km, 28.5° (Epoch: 15 July)

Date Brightness Start Highest point End Pass type
(mag) Time Alt. Az. Time Alt. Az. Time Alt. Az.
15 Jul 2.3 05:37:10 10° SW 05:40:25 23° S 05:43:41 10° ESE visible
16 Jul 2.1 05:26:53 11° SW 05:29:59 24° S 05:33:22 10° ESE visible
17 Jul 2.0 05:17:00 15° SW 05:19:34 26° S 05:23:00 10° ESE visible
18 Jul 1.9 05:07:11 18° SW 05:09:08 27° S 05:12:38 10° ESE visible
19 Jul 1.9 04:57:23 22° SSW 04:58:43 27° S 05:02:12 10° ESE visible
20 Jul 1.8 04:47:41 25° SSW 04:48:17 26° S 04:51:46 10° SE visible
21 Jul 1.9 04:38:06 25° S 04:38:06 25° S 04:41:17 10° SE visible
22 Jul 2.3 04:28:39 21° SSE 04:28:39 21° SSE 04:30:46 10° SE visible
23 Jul 2.9 04:19:23 14° SSE 04:19:23 14° SSE 04:20:14 10° SE visible
